星链-4656 (STARLINK-4656 )

导读

STARLINK-4656是美国太空探索技术公司星链星座中的一员,于2022年9月5日发射入轨。星链计划旨在搭建全球卫星互联网星座,为全球提供高速互联网接入服务。该卫星承担着地面网络覆盖盲区的通信支持任务,依托低轨部署优势,降低传输延迟,助力星链系统完成全球通信网络布局,拓展卫星互联网的服务覆盖范围。

基本信息
目录编号:
53745
目录名称:
STARLINK-4656
国际标识:
2022-107AX
轨道中心:
EARTH
卫星名称:
星链-4656
卫星全名:
星链-4656 (STARLINK-4656 )
卫星状态:
在轨 (已飞行1468 天)
发射日期:
2022-09-05 UTC
国别 :
美国 (US)
星等 :
--
该卫星已列入 空间交会检测服务 Space Conjunction Data Service (SCDS) ,当前飞行风险评估等级: 无高风险
轨道信息
数据来源 国际轨道数据 AOE轨道数据
星历时间 2026-09-12T09:10:45+0800
9小时前
查看轨道信息
2026-09-09T22:00:00+0800
2天前
查看轨道信息
半长轴 6840.892km 6840.804km
偏心率 0.0001311 0.000109
轨道倾角 53.159° 53.159°
近地点辐角 100.546° 74.790°
升交点赤经 133.138° 144.668°
平近点角 259.569° 337.167°
近地点 461.858km 461.921km
远地点 463.652km 463.413km
周期 93.849分钟 93.847分钟
每日圈数 15.343827 15.344124
详细信息
固有亮度:
5
最大亮度:
2.5
卫星平台:
Starlink v1.5
覆盖范围:
全球
运营商:
太空探索技术公司
运营商所在国:
美国
制造商(研发单位):
太空探索技术公司
制造商所在国:
美国
使用方式:
暂无
卫星简介
星链(Starlink)计划是由太空探索技术公司(SpaceX)提出的一个巨型低轨卫星互联网星座项目,计划在2019年至2024年间在太空搭建由约1.2万颗卫星组成的“星链”网络,其中1584颗将部署在地球上空550千米处的近地轨道,并从2020年开始工作。该卫星仍在工作。
2D轨道图
3D轨道图
轨道高度分析图
轨道倾角分析图
轨道综合分析图
查看轨道综合分析图
交会数据列表
事件ID 空间交会对象 最接近时刻(TCA) 交会距离 交会风险概率(CRP) 交会风险指数(CRI) 操作
CDM_260914-090505-374506-563821
2026-09-14T
09:05:48+0000
1.690 km
极远距离
1.525792E-6 低风险 0.39
与全量物体交会距离演化趋势
与全量物体交会风险概率演化趋势